Tracking 19854 objects as of 22-Sep-2019
HD Live streaming from Space Station
objects crossing your sky now

COSMOS 797

Track COSMOS 797 now!
10-day predictions
COSMOS 797 is classified as:


NORAD ID: 8613
Int'l Code: 1976-008G
Perigee: 1,486.0 km
Apogee: 1,536.0 km
Inclination: 74.1 °
Period: 116.1 minutes
Semi major axis: 7881 km
RCS: 0.7129 m2 (medium)
Launch date: January 28, 1976
Source: Commonwealth of Independent States (former USSR) (CIS)
Launch site: PLESETSK MISSILE AND SPACE COMPLEX (PKMTR)
aabbcc
Your satellite tracking list
Your tracking list is empty




NASA's NSSDC Master Catalog

Two Line Element Set (TLE):
1  8613U 76008G   19265.47010403 -.00000025  00000-0 -70360-4 0  9990
2  8613  74.0563  31.9766 0031746  45.4591  17.9054 12.40651101977141
Source of the keplerian elements: AFSPC